FW9704 Weather Reports


time (UTC)temp
F
wind
direction
speed
knots
gust
knots
rain 1hr
in
rain 24hr
in
rain mn
in
humidity
%
barometer
mb
20260504201602 80 253 1.7 10.4 0.00 0.00 0.00 42 989.5
20260504200058 80 278 3.5 12.2 0.00 0.00 0.00 42 989.7
20260504200004 80 143 2.6 12.2 0.00 0.00 0.00 43 989.7
20260504193059 80 265 4.3 12.2 0.00 0.00 0.00 43 990.1
20260504191622 79 165 3.5 8.7 0.00 0.00 0.00 45 990.1
20260504190109 79 245 2.6 16.5 0.00 0.00 0.00 45 990.4
20260504190001 79 189 2.6 16.5 0.00 0.00 0.00 47 990.4
20260504184606 79 237 4.3 12.2 0.00 0.00 0.00 45 990.4
20260504183058 79 239 4.3 9.6 0.00 0.00 0.00 47 990.5
20260504181604 79 95 1.7 7.8 0.00 0.00 0.00 48 990.6
20260504180059 78 222 2.6 14.8 0.00 0.00 0.00 49 991.1
20260504180003 78 245 4.3 14.8 0.00 0.00 0.00 49 991.1
20260504174558 78 293 5.2 10.4 0.00 0.00 0.00 50 991.2
20260504173104 78 241 3.5 14.8 0.00 0.00 0.00 51 991.3
20260504171604 77 179 2.6 13.9 0.00 0.00 0.00 51 991.6
20260504140106 67 234 4.3 7.8 0.00 0.00 0.00 67 993.1
20260504081558 45 247 0.0 0.0 0.00 0.00 0.00 94 992.3
20260504060106 50 218 0.0 1.7 0.00 0.00 0.00 88 993.4
20260504050120 49 230 0.0 0.0 0.00 0.00 0.00 88 993.6
20260504050003 49 231 0.0 0.0 0.00 0.00 0.00 88 993.6
20260504044600 50 231 0.0 0.0 0.00 0.00 0.00 87 993.7
20260504043108 50 243 0.0 0.0 0.00 0.00 0.00 87 993.9
20260504041601 51 243 0.0 0.0 0.00 0.00 0.00 86 994.0
20260504040111 52 243 0.0 1.7 0.00 0.00 0.00 85 994.0
20260504040006 52 243 0.0 1.7 0.00 0.00 0.00 85 994.0
20260504034615 52 210 0.0 1.7 0.00 0.00 0.00 83 994.1
20260504033102 52 177 0.0 0.0 0.00 0.00 0.00 82 994.1
20260504031613 52 181 0.0 1.7 0.00 0.00 0.00 81 994.1
20260504030115 52 191 0.0 1.7 0.00 0.00 0.00 81 994.2
20260504030002 52 114 0.0 0.9 0.00 0.00 0.00 81 994.2
20260504024600 53 119 0.0 1.7 0.00 0.00 0.00 80 994.1
20260504023103 53 212 0.0 0.0 0.00 0.00 0.00 78 994.3
20260504023002 53 213 0.0 0.0 0.00 0.00 0.00 78 994.3
20260504021608 54 212 0.0 0.0 0.00 0.00 0.00 77 994.3
20260504020059 55 212 0.0 0.0 0.00 0.00 0.00 75 994.2
20260504020002 55 213 0.0 0.0 0.00 0.00 0.00 75 994.2
20260504014559 56 213 0.0 0.9 0.00 0.00 0.00 71 994.0
20260504013059 58 212 0.0 0.0 0.00 0.00 0.00 70 993.7
20260504011559 59 212 0.0 0.0 0.00 0.00 0.00 67 993.5
20260504010059 60 219 0.0 0.9 0.00 0.00 0.00 64 993.5
20260504010001 60 219 0.0 0.9 0.00 0.00 0.00 64 993.5
20260504004559 62 220 0.0 1.7 0.00 0.00 0.00 63 993.4
20260504003058 63 285 0.0 1.7 0.00 0.00 0.00 59 993.3
20260504001559 64 215 0.0 2.6 0.00 0.00 0.00 56 993.4
20260504000137 65 212 0.9 3.5 0.00 0.00 0.00 54 993.6
20260504000003 65 214 0.9 1.7 0.00 0.00 0.00 55 993.6
20260503234603 66 256 0.0 2.6 0.00 0.00 0.00 53 993.8
20260503233100 68 256 0.0 6.1 0.00 0.00 0.00 47 993.9
20260503231559 68 228 0.0 7.0 0.00 0.00 0.00 45 994.1
20260503230001 69 268 0.9 7.8 0.00 0.00 0.00 46 994.1
20260503224559 69 251 3.5 9.6 0.00 0.00 0.00 40 994.4
20260503223059 70 281 3.5 9.6 0.00 0.00 0.00 37 994.5
20260503221602 71 248 0.9 6.1 0.00 0.00 0.00 41 994.5
20260503220059 71 291 3.5 7.0 0.00 0.00 0.00 42 994.6
20260503220005 70 253 3.5 7.0 0.00 0.00 0.00 41 994.6
20260503214558 71 257 1.7 8.7 0.00 0.00 0.00 42 994.8
20260503213059 71 247 0.9 7.8 0.00 0.00 0.00 39 994.9
20260503211604 70 308 0.9 9.6 0.00 0.00 0.00 38 995.2
20260503210059 70 285 2.6 9.6 0.00 0.00 0.00 42 995.4
20260503210001 70 251 0.9 7.8 0.00 0.00 0.00 41 995.4
20260503204558 70 260 4.3 10.4 0.00 0.00 0.00 39 995.5
20260503203109 70 199 2.6 10.4 0.00 0.00 0.00 40 995.8